Weather History for Monroe, WI

Change the Weather History Date:

Saturday, December 1, 2012

  Actual Average Record
Temperature  
Mean Temperature 43 °F -  
Max Temperature 53 °F 0 °F 57 °F (1998)
Min Temperature 33 °F - 8 °F (2002)
Degree Days  
Heating Degree Days 22    
Moisture  
Dew Point 44 °F    
Average Humidity 98    
Maximum Humidity 100    
Minimum Humidity 87    
Precipitation  
Precipitation 0.00 in - - ()
Sea Level Pressure  
Sea Level Pressure 29.94 in    
Wind  
Wind Speed 9 mph (SSE)    
Max Wind Speed 15 mph    
Max Gust Speed 18 mph    
Visibility 4 miles    
Events Fog , Snow    
Averages and records for this station are not official NWS values.
T = Trace of Precipitation, MM = Missing Value Source: NWS Daily Summary

Daily Weather History Graph

Daily Weather History Graph

Search for Another Location

Airport:

Trip Planner

Search our weather history database for the weather conditions in past years. The results will help you decide how hot, cold, wet, or windy it might be!

Date:

Astronomy

Dec. 01, 2012 Rise Set
Actual Time 7:09 AM CST 4:25 PM CST
Civil Twilight 6:37 AM CST 4:57 PM CST
Nautical Twilight 6:02 AM CST 5:32 PM CST
Astronomical Twilight 5:28 AM CST 6:06 PM CST
Moon 7:16 PM CST (12/1) 9:21 AM CST (12/1)
Length of Visible Light 10h 19m
Length of Day
9h 16m
Waning Gibbous, 91% of the Moon is Illuminated
Dec 1
Waning Gibbous
Dec 6
Last Quarter
Dec 13
New
Dec 19
First Quarter
Dec 28
Full

Hourly Weather History & Observations

Time (CST) Temp. Windchill Dew Point Humidity Pressure Visibility Wind Dir Wind Speed Gust Speed Precip Events Conditions
12:15 AM 33.8 °F 28.6 °F 33.8 °F 100% 30.11 in 3.0 mi East 5.8 mph - N/A   Mostly Cloudy
12:35 AM 33.8 °F 27.7 °F 33.8 °F 100% 30.10 in 3.0 mi ENE 6.9 mph - N/A   Mostly Cloudy
1:15 AM 33.8 °F 27.0 °F 33.8 °F 100% 30.11 in 2.5 mi ENE 8.1 mph - N/A   Mostly Cloudy
1:35 AM 33.8 °F 27.7 °F 33.8 °F 100% 30.11 in 2.5 mi ENE 6.9 mph - N/A   Mostly Cloudy
1:55 AM 33.8 °F 26.4 °F 33.8 °F 100% 30.11 in 2.0 mi NE 9.2 mph - N/A   Scattered Clouds
2:15 AM 33.8 °F 27.0 °F 33.8 °F 100% 30.11 in 2.0 mi ENE 8.1 mph - N/A   Clear
2:55 AM 33.8 °F 27.0 °F 33.8 °F 100% 30.08 in 1.5 mi ENE 8.1 mph - N/A   Mist
3:15 AM 33.8 °F 27.7 °F 33.8 °F 100% 30.08 in 1.5 mi ENE 6.9 mph - N/A   Mist
3:35 AM 33.8 °F 27.7 °F 33.8 °F 100% 30.08 in 1.2 mi ENE 6.9 mph - N/A   Mist
3:55 AM 33.8 °F 28.6 °F 33.8 °F 100% 30.08 in 1.2 mi ENE 5.8 mph - N/A   Mostly Cloudy
4:15 AM 33.8 °F 27.7 °F 33.8 °F 100% 30.07 in 1.0 mi ENE 6.9 mph - N/A   Overcast
4:35 AM 35.6 °F 29.9 °F 35.6 °F 100% 30.06 in 0.2 mi East 6.9 mph - N/A Fog Fog
4:55 AM 33.8 °F 27.0 °F 33.8 °F 100% 30.06 in 0.2 mi East 8.1 mph - N/A Fog Fog
5:15 AM 35.6 °F 29.9 °F 35.6 °F 100% 30.06 in 0.2 mi East 6.9 mph - N/A Snow Light Snow
5:35 AM 35.6 °F 30.7 °F 35.6 °F 100% 30.06 in 0.2 mi East 5.8 mph - N/A Fog Fog
6:15 AM 35.6 °F 29.9 °F 35.6 °F 100% 30.05 in 0.2 mi East 6.9 mph - N/A Fog Fog
6:35 AM 35.6 °F 29.9 °F 35.6 °F 100% 30.04 in 0.2 mi East 6.9 mph - N/A Fog Fog
7:15 AM 35.6 °F 30.7 °F 35.6 °F 100% 30.03 in 0.2 mi ESE 5.8 mph - N/A Fog Fog
7:35 AM 35.6 °F 30.7 °F 35.6 °F 100% 30.03 in 0.2 mi ESE 5.8 mph - N/A Fog Fog
7:55 AM 35.6 °F 30.7 °F 35.6 °F 100% 30.02 in 0.2 mi East 5.8 mph - N/A Fog Fog
8:15 AM 35.6 °F 30.7 °F 35.6 °F 100% 30.02 in 0.2 mi ESE 5.8 mph - N/A Fog Fog
8:35 AM 35.6 °F 30.7 °F 35.6 °F 100% 30.02 in 0.2 mi East 5.8 mph - N/A Fog Fog
8:55 AM 35.6 °F 30.7 °F 35.6 °F 100% 30.01 in 0.2 mi East 5.8 mph - N/A Fog Fog
9:15 AM 37.4 °F 32.8 °F 37.4 °F 100% 30.00 in 0.2 mi East 5.8 mph - N/A Fog Fog
9:35 AM 37.4 °F 32.8 °F 37.4 °F 100% 30.00 in 0.8 mi SE 5.8 mph - N/A   Overcast
9:55 AM 37.4 °F 31.4 °F 37.4 °F 100% 30.00 in 1.2 mi SE 8.1 mph - N/A   Overcast
10:15 AM 39.2 °F 32.5 °F 39.2 °F 100% 29.99 in 2.5 mi SE 10.4 mph - N/A   Overcast
10:35 AM 41.0 °F 34.7 °F 41.0 °F 100% 29.98 in 4.0 mi SSE 10.4 mph - N/A   Overcast
10:55 AM 42.8 °F 38.0 °F 42.8 °F 100% 29.97 in 5.0 mi SSE 8.1 mph - N/A   Overcast
11:15 AM 42.8 °F 37.0 °F 42.8 °F 100% 29.95 in 5.0 mi SSE 10.4 mph - N/A   Overcast
11:35 AM 44.6 °F 39.2 °F 44.6 °F 100% 29.94 in 5.0 mi SSE 10.4 mph - N/A   Overcast
11:55 AM 44.6 °F 38.8 °F 44.6 °F 100% 29.92 in 7.0 mi SSE 11.5 mph - N/A   Overcast
12:15 PM 46.4 °F 40.7 °F 44.6 °F 93% 29.93 in 7.0 mi South 12.7 mph - N/A   Overcast
12:35 PM 46.4 °F 40.7 °F 44.6 °F 93% 29.92 in 7.0 mi South 12.7 mph - N/A   Overcast
12:55 PM 46.4 °F 40.7 °F 44.6 °F 93% 29.91 in 7.0 mi SSE 12.7 mph - N/A   Overcast
1:15 PM 48.2 °F - 46.4 °F 93% 29.90 in 7.0 mi South 11.5 mph - N/A   Overcast
1:35 PM 50.0 °F - 46.4 °F 87% 29.89 in 7.0 mi South 12.7 mph - N/A   Overcast
1:55 PM 50.0 °F - 46.4 °F 87% 29.88 in 7.0 mi South 12.7 mph 17.3 mph N/A   Overcast
2:15 PM 50.0 °F - 46.4 °F 87% 29.87 in 7.0 mi SSE 11.5 mph - N/A   Overcast
2:35 PM 50.0 °F - 48.2 °F 94% 29.87 in 7.0 mi South 12.7 mph - N/A   Overcast
3:15 PM 51.8 °F - 50.0 °F 94% 29.86 in 7.0 mi South 11.5 mph - N/A   Overcast
3:35 PM 51.8 °F - 50.0 °F 94% 29.86 in 7.0 mi South 13.8 mph - N/A   Overcast
3:55 PM 51.8 °F - 50.0 °F 94% 29.86 in 7.0 mi South 10.4 mph - N/A   Overcast
4:15 PM 51.8 °F - 50.0 °F 94% 29.85 in 3.0 mi South 12.7 mph - N/A   Overcast
4:35 PM 51.8 °F - 51.8 °F 100% 29.85 in 5.0 mi South 13.8 mph 18.4 mph N/A   Overcast
4:55 PM 53.6 °F - 51.8 °F 94% 29.86 in 7.0 mi South 13.8 mph - N/A   Overcast
5:15 PM 51.8 °F - 51.8 °F 100% 29.85 in 2.5 mi South 11.5 mph 18.4 mph N/A   Overcast
5:55 PM 51.8 °F - 51.8 °F 100% 29.85 in 2.0 mi South 13.8 mph - N/A   Overcast
6:15 PM 53.6 °F - 53.6 °F 100% 29.84 in 2.5 mi South 15.0 mph - N/A   Overcast
6:35 PM 53.6 °F - 53.6 °F 100% 29.84 in 2.0 mi South 13.8 mph - N/A   Light Drizzle
6:55 PM 53.6 °F - 53.6 °F 100% 29.85 in 2.5 mi South 13.8 mph - N/A   Overcast
7:15 PM 53.6 °F - 53.6 °F 100% 29.85 in 3.0 mi SSW 10.4 mph - N/A   Overcast
7:35 PM 53.6 °F - 53.6 °F 100% 29.84 in 3.0 mi SSW 11.5 mph - N/A   Overcast
7:55 PM 53.6 °F - 53.6 °F 100% 29.85 in 4.0 mi SSW 12.7 mph - N/A   Overcast
8:15 PM 53.6 °F - 53.6 °F 100% 29.85 in 5.0 mi SSW 12.7 mph - N/A   Overcast
8:35 PM 53.6 °F - 53.6 °F 100% 29.84 in 5.0 mi SSW 13.8 mph - N/A   Overcast
8:55 PM 53.6 °F - 53.6 °F 100% 29.84 in 5.0 mi SSW 13.8 mph - N/A   Overcast
9:15 PM 53.6 °F - 53.6 °F 100% 29.84 in 5.0 mi SSW 15.0 mph - N/A   Overcast
9:35 PM 53.6 °F - 53.6 °F 100% 29.84 in 5.0 mi SSW 11.5 mph - N/A   Overcast
9:55 PM 53.6 °F - 53.6 °F 100% 29.84 in 5.0 mi SSW 11.5 mph - N/A   Overcast
10:15 PM 53.6 °F - 53.6 °F 100% 29.83 in 7.0 mi SSW 13.8 mph - N/A   Overcast
10:35 PM 53.6 °F - 53.6 °F 100% 29.83 in 7.0 mi SSW 12.7 mph - N/A   Overcast
10:55 PM 53.6 °F - 53.6 °F 100% 29.83 in 7.0 mi SSW 12.7 mph - N/A   Mostly Cloudy
11:15 PM 53.6 °F - 53.6 °F 100% 29.83 in 7.0 mi SSW 12.7 mph - N/A   Mostly Cloudy
11:35 PM 53.6 °F - 53.6 °F 100% 29.83 in 7.0 mi SSW 12.7 mph - N/A   Overcast
11:55 PM 53.6 °F - 53.6 °F 100% 29.83 in 7.0 mi SSW 10.4 mph - N/A   Overcast